Oxford, CT

2:35 AM EDT on September 23, 2017 (GMT -0400)
Waterbury-Oxford

Weather History for KOXC - May, 2012

Change the Weather History Date:

Saturday, May 26, 2012

  Actual Average Record
Temperature  
Mean Temperature 74 °F -  
Max Temperature 82 °F 65 °F 86 °F (2016)
Min Temperature 64 °F 47 °F 41 °F (2013)
Cooling Degree Days 9    
Growing Degree Days 24 (Base 50)    
Moisture  
Dew Point 65 °F    
Average Humidity 85    
Maximum Humidity 94    
Minimum Humidity 61    
Precipitation  
Precipitation 0.00 in - - ()
Sea Level Pressure  
Sea Level Pressure 30.15 in    
Wind  
Wind Speed 3 mph (SW)    
Max Wind Speed 9 mph    
Max Gust Speed -    
Visibility 4 miles    
Events Fog    
Averages and records for this station are not official NWS values.
T = Trace of Precipitation, MM = Missing Value Source: NWS Daily Summary

Daily Weather History Graph

Daily Weather History Graph

Search for Another Location

Airport or City:

Trip Planner

Search our weather history database for the weather conditions in past years. The results will help you decide how hot, cold, wet, or windy it might be!

Date:

Astronomy

May. 26, 2012 Rise Set
Actual Time 5:24 AM EDT 8:15 PM EDT
Civil Twilight 4:51 AM EDT 8:48 PM EDT
Nautical Twilight 4:10 AM EDT 9:29 PM EDT
Astronomical Twilight 3:22 AM EDT 10:17 PM EDT
Moon 10:24 AM EDT (5/26) No Moon Set
Length of Visible Light 15h 56m
Length of Day
14h 51m
Waxing Crescent, 28% of the Moon is Illuminated
May 26
Waxing Crescent
May 28
First Quarter
Jun 4
Full
Jun 11
Last Quarter
Jun 19
New

Hourly Weather History & Observations

Time (EDT) Temp. Heat Index Dew Point Humidity Pressure Visibility Wind Dir Wind Speed Gust Speed Precip Events Conditions
12:15 AM 66.2 °F - 62.6 °F 88% 30.16 in 0.5 mi SSW 4.6 mph - N/A   Overcast
12:35 AM 66.2 °F - 62.6 °F 88% 30.17 in 0.2 mi SSW 4.6 mph - N/A   Overcast
12:55 AM 66.2 °F - 64.4 °F 94% 30.16 in 0.2 mi SSW 4.6 mph - N/A   Overcast
1:15 AM 66.2 °F - 62.6 °F 88% 30.16 in 0.2 mi SW 5.8 mph - N/A   Overcast
1:35 AM 66.2 °F - 62.6 °F 88% 30.16 in 0.2 mi WSW 3.5 mph - N/A   Overcast
1:55 AM 66.2 °F - 62.6 °F 88% 30.16 in 0.2 mi SW 4.6 mph - N/A   Overcast
2:35 AM 66.2 °F - 62.6 °F 88% 30.16 in 0.2 mi Calm Calm - N/A   Overcast
2:55 AM 66.2 °F - 62.6 °F 88% 30.16 in 0.5 mi SSW 3.5 mph - N/A   Overcast
3:15 AM 66.2 °F - 62.6 °F 88% 30.16 in 0.8 mi Calm Calm - N/A   Overcast
3:55 AM 66.2 °F - 64.4 °F 94% 30.16 in 1.5 mi SW 3.5 mph - N/A   Overcast
4:15 AM 66.2 °F - 64.4 °F 94% 30.15 in 0.5 mi SSW 4.6 mph - N/A   Overcast
4:35 AM 66.2 °F - 64.4 °F 94% 30.15 in 1.2 mi SSW 3.5 mph - N/A   Overcast
5:15 AM 66.2 °F - 62.6 °F 88% 30.15 in 1.0 mi SW 3.5 mph - N/A   Overcast
5:35 AM 66.2 °F - 64.4 °F 94% 30.15 in 0.5 mi SSW 4.6 mph - N/A   Overcast
5:45 AM 66.2 °F - 64.4 °F 94% 30.15 in 0.2 mi Calm Calm - N/A Fog Fog
6:45 AM 66.2 °F - 64.4 °F 94% 30.16 in 0.2 mi Calm Calm - N/A Fog Fog
8:50 AM 68.0 °F - 64.4 °F 88% 30.16 in 1.5 mi Calm Calm - N/A   Overcast
9:45 AM 69.8 °F - 66.2 °F 88% 30.15 in 4.0 mi Calm Calm - N/A   Overcast
10:20 AM 71.6 °F - 66.2 °F 83% 30.15 in 5.0 mi Calm Calm - N/A   Overcast
10:45 AM 73.4 °F - 66.2 °F 78% 30.16 in 6.0 mi NNW 6.9 mph - N/A   Overcast
11:45 AM 77.0 °F - 69.8 °F 78% 30.15 in 6.0 mi NNW 6.9 mph - N/A   Scattered Clouds
12:55 PM 78.8 °F - 69.8 °F 74% 30.15 in 7.0 mi Calm Calm - N/A   Mostly Cloudy
1:45 PM 80.6 °F 83.9 °F 69.8 °F 70% 30.13 in 7.0 mi Calm Calm - N/A   Mostly Cloudy
2:55 PM 82.4 °F 86.3 °F 69.8 °F 66% 30.11 in 7.0 mi Calm Calm - N/A   Mostly Cloudy
3:45 PM 82.4 °F 87.2 °F 71.6 °F 70% 30.11 in 5.0 mi SSE 8.1 mph - N/A   Mostly Cloudy
4:45 PM 80.6 °F 83.9 °F 69.8 °F 70% 30.11 in 5.0 mi SSW 9.2 mph - N/A   Overcast
5:45 PM 77.0 °F - 69.8 °F 78% 30.11 in 7.0 mi NW 9.2 mph - N/A   Haze
6:45 PM 77.0 °F - 62.6 °F 61% 30.12 in 10.0 mi West 3.5 mph - N/A   Overcast
7:45 PM 73.4 °F - 62.6 °F 69% 30.15 in 10.0 mi Calm Calm - N/A   Overcast
8:55 PM 69.8 °F - 64.4 °F 83% 30.13 in 8.0 mi Calm Calm - N/A   Partly Cloudy
9:15 PM 68.0 °F - 64.4 °F 88% 30.13 in 5.0 mi NNE 3.5 mph - N/A   Clear
9:55 PM 66.2 °F - 64.4 °F 94% 30.14 in 4.0 mi Calm Calm - N/A   Clear
10:15 PM 66.2 °F - 64.4 °F 94% 30.14 in 5.0 mi Calm Calm - N/A   Clear
10:35 PM - - - N/A% 30.13 in 4.0 mi Calm Calm - N/A   Clear
10:55 PM 66.2 °F - 64.4 °F 94% 30.14 in 5.0 mi Calm Calm - N/A   Clear
11:35 PM 66.2 °F - 62.6 °F 88% 30.15 in 4.0 mi Calm Calm - N/A   Clear
11:55 PM 64.4 °F - 62.6 °F 94% 30.15 in 5.0 mi North 3.5 mph - N/A   Clear